Observations for Trim Market St
| Time | AQI | Temp °C | Hum % | Pres Pa | CO μg/m³ | H₂S μg/m³ | NO μg/m³ | NO₂ μg/m³ | O₃ μg/m³ | SO₂ μg/m³ | PM1 μg/m³ | PM2.5 μg/m³ | PM10 μg/m³ |
|---|---|---|---|---|---|---|---|---|---|---|---|---|---|
| Friday 21 August 2026 | |||||||||||||
| 15:49 | 3 | 21.7 | 47 | 58,295 | 0 | 13.26 | 1.93 | 61.49 | 50.16 | 0 | 0 | 2.06 | 2.26 |
| 15:48 | 3 | 21.8 | 47 | 59,172 | 0.18 | 18.7 | 1.82 | 79.43 | 50.39 | 0 | 0 | 2.07 | 2.28 |
| 15:47 | 3 | 21.9 | 46 | 60,333 | 0 | 17.69 | 1.81 | 91.82 | 71.98 | 0 | 0 | 2.1 | 2.31 |
| 15:39 | 3 | 22.7 | 43 | 64,464 | 0 | 3.6 | 1.15 | 16.02 | 69.22 | 0 | 0 | 2.23 | 2.45 |
| 15:34 | 3 | 23.4 | 41 | 65,163 | 0 | 5.04 | 1.04 | 22.1 | 171.43 | 0 | 0 | 2.3 | 2.53 |
| 15:32 | 3 | 23.6 | 41 | 65,299 | 0 | 0 | 1 | 10.13 | 69.45 | 0 | 0 | 2.83 | 3.12 |
| 15:31 | 3 | 23.7 | 41 | 65,280 | 0 | 0.88 | 1.01 | 13.49 | 82.1 | 0 | 0 | 2.3 | 2.53 |
| 15:28 | 3 | 23.9 | 42 | 65,278 | 0 | 0 | 1 | 12.34 | 65.79 | 0 | 0 | 2.79 | 3.56 |
| 15:27 | 3 | 24 | 42 | 65,252 | 0 | 3.65 | 0.99 | 24.48 | 112.38 | 0 | 0 | 2.27 | 2.5 |
| 15:26 | 3 | 24 | 42 | 65,272 | 0 | 0 | 0.96 | 18.55 | 79.19 | 0 | 0 | 2.8 | 3.08 |
| 15:25 | 3 | 24 | 42 | 65,266 | 0 | 0 | 0.95 | 13.9 | 67.57 | 0 | 0 | 2.26 | 2.49 |
| 15:24 | 3 | 24.1 | 43 | 65,230 | 0 | 0 | 0.96 | 13.66 | 66.03 | 0 | 0 | 2.77 | 3.05 |
| 15:23 | 3 | 24.1 | 43 | 65,180 | 0 | 1.18 | 0.93 | 20.25 | 69.31 | 0 | 3.56 | 6.95 | 8.31 |
| 15:22 | 3 | 24.1 | 43 | 65,172 | 0 | 4.95 | 0.98 | 31.36 | 73.89 | 0 | 0 | 2.24 | 2.8 |
| 15:21 | 3 | 24.1 | 43 | 65,168 | 0 | 4.71 | 1.47 | 35.59 | 101.57 | 0 | 0 | 2.75 | 3.03 |
| 15:20 | 3 | 24.1 | 43 | 65,159 | 0 | 1.79 | 1.66 | 20.59 | 66.65 | 0 | 0 | 2.75 | 3.02 |
| 15:19 | 3 | 24.1 | 43 | 65,149 | 0 | 7.44 | 1.62 | 52.94 | 64.28 | 0 | 0.71 | 2.74 | 2.81 |
| 15:18 | 3 | 24 | 43 | 65,129 | 0.14 | 12.4 | 1.61 | 82.11 | 43.29 | 0 | 0 | 2.22 | 2.45 |
| 15:17 | 3 | 24 | 43 | 65,107 | 0 | 8.11 | 1.6 | 64.02 | 65.6 | 0 | 0 | 2.22 | 2.45 |
| 15:16 | 3 | 24 | 43 | 65,080 | 0 | 3.99 | 1.62 | 33.13 | 101.5 | 0 | 0 | 2.74 | 3.02 |